Tracking 19176 objects as of 26-May-2018
HD Live streaming from Space Station
objects crossing your sky now

COSMOS 1998

Track COSMOS 1998 now!
10-day predictions
COSMOS 1998 is classified as:


NORAD ID: 19789
Int'l Code: 1989-009E
Perigee: 1,397.0 km
Apogee: 1,423.3 km
Inclination: 82.6 °
Period: 113.8 minutes
Semi major axis: 7781 km
RCS: 1.1762 m2 (large)
Launch date: February 10, 1989
Source: Commonwealth of Independent States (former USSR) (CIS)
Launch site: PLESETSK MISSILE AND SPACE COMPLEX (PKMTR)
aabbcc
Your satellite tracking list
Your tracking list is empty




NASA's NSSDC Master Catalog

Two Line Element Set (TLE):
1 19789U 89009E   18145.56385921 +.00000001 +00000-0 -54898-4 0  9998
2 19789 082.6144 050.9957 0016885 145.6481 214.5707 12.64853163351748
Source of the keplerian elements: AFSPC